"read_dt","SO2 (ppb)","flags","PMT voltage (V)","lamp voltage (V)","lamp intensity (Hz)","internal temp (C)","react chamber temp (C)","sample flow (l/min)","pres (mmHg)","SO2 bkg (ppb)","SO2 coefficient"
2013-10-22 00:00:00,4187E-4,5C000000,-0724,0958,10986,024.4,045.2,0.400,741.2,01.18,0.508
2013-10-22 00:01:00,4061E-4,5C000000,-0724,0958,10902,024.4,045.2,0.400,741.1,01.18,0.508
2013-10-22 00:02:00,3895E-4,5C000000,-0724,0958,10911,024.4,045.2,0.400,741.2,01.18,0.508
2013-10-22 00:03:00,4134E-4,5C000000,-0724,0957,11017,024.4,045.2,0.400,741.2,01.18,0.508
2013-10-22 00:04:00,3368E-4,5C000000,-0724,0958,11014,024.3,045.2,0.400,741.3,01.18,0.508
2013-10-22 00:05:00,4932E-4,5C000000,-0724,0958,10810,024.4,045.2,0.400,741.2,01.18,0.508
2013-10-22 00:06:00,3327E-4,5C000000,-0724,0958,10971,024.4,045.2,0.401,741.2,01.18,0.508
2013-10-22 00:07:00,3452E-4,5C000000,-0724,0957,11016,024.4,045.2,0.400,741.2,01.18,0.508
2013-10-22 00:08:00,3807E-4,5C000000,-0724,0957,10813,024.4,045.2,0.400,741.2,01.18,0.508
2013-10-22 00:09:00,3317E-4,5C000000,-0724,0958,10899,024.4,045.2,0.400,741.2,01.18,0.508
2013-10-22 00:10:00,3037E-4,5C000000,-0724,0957,10940,024.4,045.2,0.400,741.0,01.18,0.508
2013-10-22 00:11:00,3596E-4,5C000000,-0724,0958,11022,024.4,045.2,0.400,741.3,01.18,0.508
2013-10-22 00:12:00,3139E-4,5C000000,-0724,0959,10852,024.4,045.2,0.400,741.2,01.18,0.508
2013-10-22 00:13:00,3251E-4,5C000000,-0724,0958,11054,024.4,045.2,0.400,741.2,01.18,0.508
2013-10-22 00:14:00,3431E-4,5C000000,-0724,0958,11090,024.4,045.2,0.401,741.3,01.18,0.508
2013-10-22 00:15:00,2977E-4,5C000000,-0724,0959,10893,024.4,045.2,0.400,741.3,01.18,0.508
2013-10-22 00:16:00,2610E-4,5C000000,-0724,0958,10962,024.4,045.2,0.400,741.3,01.18,0.508
2013-10-22 00:17:00,3553E-4,5C000000,-0724,0958,10951,024.4,045.2,0.400,741.3,01.18,0.508
2013-10-22 00:18:00,3917E-4,5C000000,-0724,0958,10968,024.4,045.2,0.400,741.3,01.18,0.508
2013-10-22 00:19:00,3493E-4,5C000000,-0724,0958,11002,024.4,045.2,0.401,741.3,01.18,0.508
2013-10-22 00:20:00,3702E-4,5C000000,-0724,0958,11014,024.4,045.2,0.400,741.3,01.18,0.508
2013-10-22 00:21:00,4638E-4,5C000000,-0724,0957,10939,024.4,045.2,0.400,741.3,01.18,0.508
2013-10-22 00:22:00,2830E-4,5C000000,-0724,0958,10869,024.4,045.2,0.400,741.3,01.18,0.508
2013-10-22 00:23:00,3238E-4,5C000000,-0724,0957,11024,024.4,045.2,0.400,741.3,01.18,0.508
2013-10-22 00:24:00,3781E-4,5C000000,-0724,0957,10851,024.4,045.2,0.400,741.3,01.18,0.508
2013-10-22 00:25:00,2998E-4,5C000000,-0724,0958,10851,024.4,045.2,0.400,741.4,01.18,0.508
2013-10-22 00:26:00,3637E-4,5C000000,-0724,0958,11030,024.4,045.2,0.400,741.4,01.18,0.508
2013-10-22 00:27:00,2902E-4,5C000000,-0724,0958,10896,024.4,045.2,0.400,741.4,01.18,0.508
2013-10-22 00:28:00,3722E-4,5C000000,-0724,0958,10944,024.4,045.2,0.400,741.4,01.18,0.508
2013-10-22 00:29:00,3361E-4,5C000000,-0724,0958,10992,024.5,045.3,0.400,741.4,01.18,0.508
2013-10-22 00:30:00,3668E-4,5C000000,-0724,0958,11015,024.5,045.2,0.400,741.4,01.18,0.508
2013-10-22 00:31:00,3005E-4,5C000000,-0724,0957,10875,024.5,045.2,0.400,741.3,01.18,0.508
2013-10-22 00:32:00,4162E-4,5C000000,-0724,0959,10883,024.5,045.2,0.400,741.3,01.18,0.508
2013-10-22 00:33:00,3178E-4,5C000000,-0724,0958,10979,024.5,045.2,0.401,741.4,01.18,0.508
2013-10-22 00:34:00,3962E-4,5C000000,-0724,0958,10934,024.5,045.2,0.400,741.4,01.18,0.508
2013-10-22 00:35:00,3665E-4,5C000000,-0724,0958,10922,024.5,045.2,0.400,741.3,01.18,0.508
2013-10-22 00:36:00,3390E-4,5C000000,-0724,0957,10706,024.5,045.2,0.400,741.3,01.18,0.508
2013-10-22 00:37:00,3125E-4,5C000000,-0724,0958,11052,024.5,045.2,0.400,741.3,01.18,0.508
2013-10-22 00:38:00,3237E-4,5C000000,-0724,0957,10880,024.5,045.2,0.400,741.3,01.18,0.508
2013-10-22 00:39:00,3765E-4,5C000000,-0724,0958,11011,024.5,045.2,0.400,741.2,01.18,0.508
2013-10-22 00:40:00,2603E-4,5C000000,-0724,0958,10943,024.5,045.2,0.400,741.2,01.18,0.508
2013-10-22 00:41:00,3541E-4,5C000000,-0724,0957,10999,024.5,045.2,0.400,741.2,01.18,0.508
2013-10-22 00:42:00,4559E-4,5C000000,-0724,0958,10794,024.5,045.2,0.400,741.2,01.18,0.508
2013-10-22 00:43:00,3546E-4,5C000000,-0724,0958,10957,024.5,045.2,0.400,741.2,01.18,0.508
2013-10-22 00:44:00,3991E-4,5C000000,-0724,0959,10910,024.5,045.2,0.400,741.2,01.18,0.508
2013-10-22 00:45:00,3305E-4,5C000000,-0724,0958,10950,024.5,045.2,0.400,741.1,01.18,0.508
2013-10-22 00:46:00,3568E-4,5C000000,-0724,0958,10884,024.5,045.2,0.400,741.1,01.18,0.508
2013-10-22 00:47:00,3700E-4,5C000000,-0724,0958,10977,024.5,045.2,0.400,741.1,01.18,0.508
2013-10-22 00:48:00,4543E-4,5C000000,-0724,0958,11066,024.5,045.2,0.400,741.1,01.18,0.508
2013-10-22 00:49:00,4212E-4,5C000000,-0724,0959,11012,024.6,045.2,0.400,741.2,01.18,0.508
2013-10-22 00:50:00,3501E-4,5C000000,-0724,0958,10969,024.6,045.2,0.400,741.2,01.18,0.508
2013-10-22 00:51:00,4319E-4,5C000000,-0724,0958,10997,024.5,045.2,0.400,741.2,01.18,0.508
2013-10-22 00:52:00,3863E-4,5C000000,-0724,0958,10965,024.5,045.2,0.400,741.1,01.18,0.508
2013-10-22 00:53:00,3963E-4,5C000000,-0724,0958,11033,024.5,045.2,0.400,741.2,01.18,0.508
2013-10-22 00:54:00,4200E-4,5C000000,-0724,0957,10896,024.5,045.2,0.400,741.1,01.18,0.508
2013-10-22 00:55:00,3603E-4,5C000000,-0724,0958,10868,024.5,045.2,0.400,741.0,01.18,0.508
2013-10-22 00:56:00,3541E-4,5C000000,-0724,0958,11057,024.6,045.3,0.400,741.1,01.18,0.508
2013-10-22 00:57:00,4101E-4,5C000000,-0724,0957,10911,024.6,045.2,0.399,740.8,01.18,0.508
2013-10-22 00:58:00,3744E-4,5C000000,-0724,0958,10994,024.6,045.3,0.400,741.0,01.18,0.508
2013-10-22 00:59:00,3878E-4,5C000000,-0724,0958,11076,024.6,045.2,0.400,740.9,01.18,0.508
2013-10-22 01:00:00,4320E-4,5C000000,-0724,0958,10797,024.6,045.2,0.400,740.7,01.18,0.508
2013-10-22 01:01:00,3946E-4,5C000000,-0724,0959,10915,024.6,045.2,0.400,740.9,01.18,0.508
2013-10-22 01:02:00,4866E-4,5C000000,-0724,0957,10840,024.6,045.2,0.399,740.6,01.18,0.508
2013-10-22 01:03:00,3943E-4,5C000000,-0724,0958,10983,024.6,045.2,0.400,740.6,01.18,0.508
2013-10-22 01:04:00,3463E-4,5C000000,-0724,0959,11085,024.6,045.2,0.400,740.6,01.18,0.508
2013-10-22 01:05:00,4329E-4,5C000000,-0724,0959,11019,024.6,045.2,0.400,740.9,01.18,0.508
2013-10-22 01:06:00,3585E-4,5C000000,-0724,0958,10844,024.6,045.2,0.400,740.9,01.18,0.508
2013-10-22 01:07:00,3798E-4,5C000000,-0724,0958,11078,024.6,045.3,0.399,740.9,01.18,0.508
2013-10-22 01:08:00,3234E-4,5C000000,-0724,0959,11024,024.6,045.2,0.400,740.6,01.18,0.508
2013-10-22 01:09:00,3659E-4,5C000000,-0724,0958,10883,024.6,045.3,0.400,740.6,01.18,0.508
2013-10-22 01:10:00,5517E-4,5C000000,-0724,0958,11072,024.6,045.2,0.400,740.6,01.18,0.508
2013-10-22 01:11:00,4839E-4,5C000000,-0724,0958,11073,024.6,045.2,0.399,740.7,01.18,0.508
2013-10-22 01:12:00,3121E-4,5C000000,-0724,0958,10978,024.6,045.2,0.400,740.6,01.18,0.508
2013-10-22 01:13:00,4445E-4,5C000000,-0724,0958,10926,024.6,045.2,0.400,740.6,01.18,0.508
2013-10-22 01:14:00,4290E-4,5C000000,-0724,0959,11001,024.6,045.2,0.399,740.6,01.18,0.508
2013-10-22 01:15:00,4409E-4,5C000000,-0724,0958,10896,024.6,045.2,0.400,740.6,01.18,0.508
2013-10-22 01:16:00,4090E-4,5C000000,-0724,0958,10928,024.6,045.2,0.399,740.6,01.18,0.508
2013-10-22 01:17:00,4452E-4,5C000000,-0724,0958,11042,024.6,045.2,0.399,740.6,01.18,0.508
2013-10-22 01:18:00,3714E-4,5C000000,-0724,0958,10992,024.6,045.2,0.400,740.6,01.18,0.508
2013-10-22 01:19:00,3726E-4,5C000000,-0724,0959,10930,024.7,045.2,0.399,740.6,01.18,0.508
2013-10-22 01:20:00,3255E-4,5C000000,-0724,0958,11037,024.7,045.2,0.399,740.6,01.18,0.508
2013-10-22 01:21:00,4659E-4,5C000000,-0724,0958,10937,024.7,045.2,0.400,740.6,01.18,0.508
2013-10-22 01:22:00,4304E-4,5C000000,-0724,0957,10889,024.7,045.2,0.399,740.6,01.18,0.508
2013-10-22 01:23:00,3656E-4,5C000000,-0724,0959,10919,024.7,045.2,0.400,740.6,01.18,0.508
2013-10-22 01:24:00,3940E-4,5C000000,-0724,0958,10866,024.7,045.2,0.400,740.6,01.18,0.508
2013-10-22 01:25:00,4302E-4,5C000000,-0724,0958,11052,024.7,045.2,0.399,740.6,01.18,0.508
2013-10-22 01:26:00,4424E-4,5C000000,-0724,0958,10907,024.7,045.2,0.400,740.6,01.18,0.508
2013-10-22 01:27:00,3349E-4,5C000000,-0724,0959,10987,024.7,045.2,0.399,740.6,01.18,0.508
2013-10-22 01:28:00,3460E-4,5C000000,-0724,0958,10940,024.7,045.3,0.399,740.6,01.18,0.508
2013-10-22 01:29:00,5223E-4,5C000000,-0724,0958,10906,024.7,045.2,0.400,740.6,01.18,0.508
2013-10-22 01:30:00,4262E-4,5C000000,-0724,0958,10969,024.7,045.2,0.399,740.6,01.18,0.508
2013-10-22 01:31:00,3945E-4,5C000000,-0724,0959,11046,024.7,045.2,0.400,740.6,01.18,0.508
2013-10-22 01:32:00,4378E-4,5C000000,-0724,0958,10937,024.7,045.2,0.399,740.6,01.18,0.508
2013-10-22 01:33:00,3971E-4,5C000000,-0724,0958,10907,024.7,045.2,0.399,740.6,01.18,0.508
2013-10-22 01:34:00,4696E-4,5C000000,-0724,0958,10984,024.7,045.2,0.400,740.6,01.18,0.508
2013-10-22 01:35:00,3544E-4,5C000000,-0724,0959,10926,024.7,045.2,0.399,740.6,01.18,0.508
2013-10-22 01:36:00,4993E-4,5C000000,-0724,0957,11028,024.7,045.3,0.400,740.6,01.18,0.508
2013-10-22 01:37:00,4640E-4,5C000000,-0724,0958,10952,024.7,045.2,0.399,740.6,01.18,0.508
2013-10-22 01:38:00,4307E-4,5C000000,-0724,0957,10911,024.7,045.2,0.399,740.6,01.18,0.508
2013-10-22 01:39:00,3730E-4,5C000000,-0724,0959,10856,024.7,045.2,0.400,740.6,01.18,0.508
2013-10-22 01:40:00,4227E-4,5C000000,-0724,0958,10974,024.7,045.2,0.399,740.6,01.18,0.508
2013-10-22 01:41:00,4516E-4,5C000000,-0724,0959,10912,024.7,045.2,0.400,740.6,01.18,0.508
2013-10-22 01:42:00,4125E-4,5C000000,-0724,0959,11099,024.8,045.2,0.399,740.6,01.18,0.508
2013-10-22 01:43:00,4832E-4,5C000000,-0724,0957,10960,024.7,045.2,0.399,740.6,01.18,0.508
2013-10-22 01:44:00,4040E-4,5C000000,-0724,0958,11039,024.7,045.2,0.400,740.6,01.18,0.508
2013-10-22 01:45:00,5044E-4,5C000000,-0724,0958,10970,024.7,045.2,0.399,740.6,01.18,0.508
2013-10-22 01:46:00,3991E-4,5C000000,-0724,0958,11029,024.8,045.2,0.399,740.6,01.18,0.508
2013-10-22 01:47:00,4591E-4,5C000000,-0724,0958,11119,024.8,045.2,0.399,740.6,01.18,0.508
2013-10-22 01:48:00,4900E-4,5C000000,-0724,0958,10885,024.8,045.2,0.399,740.6,01.18,0.508
2013-10-22 01:49:00,4259E-4,5C000000,-0724,0958,10929,024.8,045.2,0.400,740.6,01.18,0.508
2013-10-22 01:50:00,4428E-4,5C000000,-0724,0960,10933,024.8,045.2,0.399,740.6,01.18,0.508
2013-10-22 01:51:00,5837E-4,5C000000,-0724,0958,11053,024.8,045.2,0.399,740.6,01.18,0.508
2013-10-22 01:52:00,4309E-4,5C000000,-0724,0958,11010,024.8,045.2,0.400,740.6,01.18,0.508
2013-10-22 01:53:00,4032E-4,5C000000,-0724,0958,11000,024.8,045.2,0.399,740.6,01.18,0.508
2013-10-22 01:54:00,3878E-4,5C000000,-0724,0960,10981,024.8,045.2,0.400,740.6,01.18,0.508
2013-10-22 01:55:00,4569E-4,5C000000,-0724,0958,11055,024.8,045.2,0.399,740.6,01.18,0.508
2013-10-22 01:56:00,5309E-4,5C000000,-0724,0958,11004,024.8,045.2,0.399,740.6,01.18,0.508
2013-10-22 01:57:00,4571E-4,5C000000,-0724,0958,10990,024.8,045.2,0.400,740.6,01.18,0.508
2013-10-22 01:58:00,5041E-4,5C000000,-0724,0957,10958,024.8,045.2,0.399,740.6,01.18,0.508
2013-10-22 01:59:00,4778E-4,5C000000,-0724,0959,10867,024.8,045.2,0.399,740.6,01.18,0.508
2013-10-22 02:00:00,5531E-4,5C000000,-0724,0958,10984,024.8,045.3,0.400,740.6,01.18,0.508
2013-10-22 02:01:00,5405E-4,5C000000,-0724,0958,10827,024.8,045.2,0.399,740.6,01.18,0.508
2013-10-22 02:02:00,5277E-4,5C000000,-0724,0959,10870,024.8,045.2,0.399,740.6,01.18,0.508
2013-10-22 02:03:00,4232E-4,5C000000,-0724,0959,10973,024.8,045.3,0.400,740.6,01.18,0.508
2013-10-22 02:04:00,5353E-4,5C000000,-0724,0959,11022,024.8,045.2,0.399,740.6,01.18,0.508
2013-10-22 02:05:00,5160E-4,5C000000,-0724,0958,10917,024.8,045.2,0.400,740.6,01.18,0.508
2013-10-22 02:06:00,4425E-4,5C000000,-0724,0959,10986,024.8,045.2,0.399,740.6,01.18,0.508
2013-10-22 02:07:00,5300E-4,5C000000,-0724,0959,11005,024.8,045.2,0.399,740.6,01.18,0.508
2013-10-22 02:08:00,4198E-4,5C000000,-0724,0958,10877,024.8,045.2,0.400,740.6,01.18,0.508
2013-10-22 02:09:00,4884E-4,5C000000,-0724,0959,10891,024.8,045.2,0.399,740.6,01.18,0.508
2013-10-22 02:10:00,4841E-4,5C000000,-0724,0958,11014,024.8,045.2,0.399,740.6,01.18,0.508
2013-10-22 02:11:00,4621E-4,5C000000,-0724,0959,10921,024.8,045.2,0.400,740.6,01.18,0.508
2013-10-22 02:12:00,3599E-4,5C000000,-0724,0958,11007,024.8,045.2,0.399,740.6,01.18,0.508
2013-10-22 02:13:00,5388E-4,5C000000,-0724,0958,10845,024.8,045.2,0.399,740.6,01.18,0.508
2013-10-22 02:14:00,4300E-4,5C000000,-0724,0958,10974,024.8,045.2,0.400,740.6,01.18,0.508
2013-10-22 02:15:00,4091E-4,5C000000,-0724,0959,10833,024.8,045.2,0.399,740.6,01.18,0.508
2013-10-22 02:16:00,4382E-4,5C000000,-0724,0958,10921,024.8,045.2,0.399,740.6,01.18,0.508
2013-10-22 02:17:00,4384E-4,5C000000,-0724,0958,10947,024.8,045.2,0.399,740.6,01.18,0.508
2013-10-22 02:18:00,4879E-4,5C000000,-0724,0959,10918,024.8,045.2,0.399,740.6,01.18,0.508
2013-10-22 02:19:00,4735E-4,5C000000,-0724,0959,10867,024.8,045.2,0.399,740.6,01.18,0.508
2013-10-22 02:20:00,5163E-4,5C000000,-0724,0958,11010,024.9,045.2,0.399,740.6,01.18,0.508
2013-10-22 02:21:00,5861E-4,5C000000,-0724,0959,10990,024.9,045.2,0.399,740.5,01.18,0.508
2013-10-22 02:22:00,3729E-4,5C000000,-0724,0959,10991,024.8,045.2,0.399,740.6,01.18,0.508
2013-10-22 02:23:00,4817E-4,5C000000,-0724,0958,11004,024.8,045.2,0.399,740.6,01.18,0.508
2013-10-22 02:24:00,5117E-4,5C000000,-0724,0959,11042,024.9,045.2,0.399,740.5,01.18,0.508
2013-10-22 02:25:00,5287E-4,5C000000,-0724,0958,10956,024.8,045.2,0.399,740.6,01.18,0.508
2013-10-22 02:26:00,4701E-4,5C000000,-0724,0958,11000,024.9,045.2,0.399,740.6,01.18,0.508
2013-10-22 02:27:00,6364E-4,5C000000,-0724,0958,10930,024.9,045.2,0.399,740.6,01.18,0.508
2013-10-22 02:28:00,4724E-4,5C000000,-0724,0959,11027,024.9,045.2,0.399,740.6,01.18,0.508
2013-10-22 02:29:00,5421E-4,5C000000,-0724,0958,11054,024.9,045.3,0.399,740.5,01.18,0.508
2013-10-22 02:30:00,5085E-4,5C000000,-0724,0959,10854,024.9,045.2,0.399,740.5,01.18,0.508
2013-10-22 02:31:00,5288E-4,5C000000,-0724,0959,10898,024.9,045.2,0.399,740.5,01.18,0.508
2013-10-22 02:32:00,5158E-4,5C000000,-0724,0959,10785,024.9,045.2,0.399,740.5,01.18,0.508
2013-10-22 02:33:00,4851E-4,5C000000,-0724,0960,10866,024.9,045.2,0.399,740.5,01.18,0.508
2013-10-22 02:34:00,6338E-4,5C000000,-0724,0959,10897,024.9,045.2,0.399,740.6,01.18,0.508
2013-10-22 02:35:00,5430E-4,5C000000,-0724,0959,10966,024.9,045.2,0.399,740.6,01.18,0.508
2013-10-22 02:36:00,4910E-4,5C000000,-0724,0958,10888,024.9,045.2,0.399,740.5,01.18,0.508
2013-10-22 02:37:00,4570E-4,5C000000,-0724,0959,10728,024.9,045.2,0.400,740.6,01.18,0.508
2013-10-22 02:38:00,4696E-4,5C000000,-0724,0958,11005,024.9,045.2,0.399,740.6,01.18,0.508
2013-10-22 02:39:00,4981E-4,5C000000,-0724,0959,11126,024.9,045.3,0.399,740.6,01.18,0.508
2013-10-22 02:40:00,5458E-4,5C000000,-0724,0959,10829,024.9,045.3,0.399,740.6,01.18,0.508
2013-10-22 02:41:00,6133E-4,5C000000,-0724,0959,11058,024.9,045.2,0.399,740.6,01.18,0.508
2013-10-22 02:42:00,5573E-4,5C000000,-0724,0958,11017,024.9,045.2,0.399,740.6,01.18,0.508
2013-10-22 02:43:00,5697E-4,5C000000,-0724,0959,10984,024.9,045.2,0.399,740.6,01.18,0.508
2013-10-22 02:44:00,4810E-4,5C000000,-0724,0959,10820,024.9,045.2,0.399,740.6,01.18,0.508
2013-10-22 02:45:00,5575E-4,5C000000,-0724,0959,11033,024.9,045.3,0.399,740.6,01.18,0.508
2013-10-22 02:46:00,5024E-4,5C000000,-0724,0958,11022,024.9,045.2,0.399,740.6,01.18,0.508
2013-10-22 02:47:00,4095E-4,5C000000,-0724,0958,10860,024.9,045.2,0.399,740.6,01.18,0.508
2013-10-22 02:48:00,6062E-4,5C000000,-0724,0959,10975,024.9,045.3,0.399,740.6,01.18,0.508
2013-10-22 02:49:00,4674E-4,5C000000,-0724,0959,10967,024.9,045.3,0.399,740.6,01.18,0.508
2013-10-22 02:50:00,5880E-4,5C000000,-0724,0958,10955,024.9,045.3,0.399,740.6,01.18,0.508
2013-10-22 02:51:00,5957E-4,5C000000,-0724,0958,10943,024.9,045.2,0.399,740.6,01.18,0.508
2013-10-22 02:52:00,4771E-4,5C000000,-0724,0958,10896,024.9,045.2,0.399,740.6,01.18,0.508
2013-10-22 02:53:00,4772E-4,5C000000,-0724,0959,10994,024.9,045.2,0.399,740.6,01.18,0.508
2013-10-22 02:54:00,4457E-4,5C000000,-0724,0959,10839,024.9,045.2,0.399,740.5,01.18,0.508
2013-10-22 02:55:00,4942E-4,5C000000,-0724,0958,10951,024.9,045.2,0.398,740.6,01.18,0.508
2013-10-22 02:56:00,5262E-4,5C000000,-0724,0959,11052,024.9,045.2,0.399,740.6,01.18,0.508
2013-10-22 02:57:00,5755E-4,5C000000,-0724,0958,10931,025.0,045.2,0.399,740.2,01.18,0.508
2013-10-22 02:58:00,6258E-4,5C000000,-0724,0959,11071,024.9,045.2,0.399,740.3,01.18,0.508
2013-10-22 02:59:00,5403E-4,5C000000,-0724,0958,10838,024.9,045.3,0.399,740.6,01.18,0.508
2013-10-22 03:00:00,6333E-4,5C000000,-0724,0958,11057,024.9,045.2,0.399,740.5,01.18,0.508
2013-10-22 03:01:00,5458E-4,5C000000,-0724,0959,11051,024.9,045.2,0.398,740.2,01.18,0.508
2013-10-22 03:02:00,5573E-4,5C000000,-0724,0959,10972,024.9,045.2,0.399,740.4,01.18,0.508
2013-10-22 03:03:00,5810E-4,5C000000,-0724,0959,10947,024.9,045.3,0.399,740.2,01.18,0.508
2013-10-22 03:04:00,5382E-4,5C000000,-0724,0958,10964,025.0,045.2,0.398,740.5,01.18,0.508
2013-10-22 03:05:00,4768E-4,5C000000,-0724,0959,10978,025.0,045.2,0.399,740.5,01.18,0.508
2013-10-22 03:06:00,5475E-4,5C000000,-0724,0959,10857,025.0,045.2,0.399,740.2,01.18,0.508
2013-10-22 03:07:00,4329E-4,5C000000,-0724,0958,10913,025.0,045.2,0.399,740.3,01.18,0.508
2013-10-22 03:08:00,5463E-4,5C000000,-0724,0960,10844,025.0,045.2,0.399,740.1,01.18,0.508
2013-10-22 03:09:00,5510E-4,5C000000,-0724,0958,10871,025.0,045.2,0.399,740.2,01.18,0.508
2013-10-22 03:10:00,6244E-4,5C000000,-0724,0959,10954,025.0,045.2,0.399,740.2,01.18,0.508
2013-10-22 03:11:00,4619E-4,5C000000,-0724,0959,11056,025.0,045.2,0.399,740.2,01.18,0.508
2013-10-22 03:12:00,5935E-4,5C000000,-0724,0958,10880,025.0,045.2,0.398,740.5,01.18,0.508
2013-10-22 03:13:00,5765E-4,5C000000,-0724,0958,10903,025.0,045.2,0.399,740.5,01.18,0.508
2013-10-22 03:14:00,5502E-4,5C000000,-0724,0958,10838,025.0,045.2,0.399,740.3,01.18,0.508
2013-10-22 03:15:00,4428E-4,5C000000,-0724,0958,10971,025.0,045.2,0.398,740.3,01.18,0.508
2013-10-22 03:16:00,6095E-4,5C000000,-0724,0959,10929,025.0,045.3,0.399,740.4,01.18,0.508
2013-10-22 03:17:00,5433E-4,5C000000,-0724,0959,10892,025.0,045.2,0.399,740.3,01.18,0.508
2013-10-22 03:18:00,5569E-4,5C000000,-0724,0959,10742,025.0,045.2,0.398,740.4,01.18,0.508
2013-10-22 03:19:00,5724E-4,5C000000,-0724,0959,11030,025.0,045.2,0.399,740.4,01.18,0.508
2013-10-22 03:20:00,5743E-4,5C000000,-0724,0959,11083,025.0,045.2,0.399,740.5,01.18,0.508
2013-10-22 03:21:00,6110E-4,5C000000,-0724,0958,10966,025.0,045.2,0.398,740.5,01.18,0.508
2013-10-22 03:22:00,5480E-4,5C000000,-0724,0959,10939,025.0,045.3,0.399,740.1,01.18,0.508
2013-10-22 03:23:00,5747E-4,5C000000,-0724,0960,10762,025.0,045.2,0.398,740.2,01.18,0.508
2013-10-22 03:24:00,5131E-4,5C000000,-0724,0959,10937,025.0,045.2,0.399,740.2,01.18,0.508
2013-10-22 03:25:00,5543E-4,5C000000,-0724,0959,10921,025.0,045.3,0.399,740.0,01.18,0.508
2013-10-22 03:26:00,5093E-4,5C000000,-0724,0958,10942,025.0,045.2,0.398,740.1,01.18,0.508
2013-10-22 03:27:00,6008E-4,5C000000,-0724,0959,10863,025.0,045.2,0.399,740.1,01.18,0.508
2013-10-22 03:28:00,5846E-4,5C000000,-0724,0958,10958,025.0,045.2,0.399,740.1,01.18,0.508
2013-10-22 03:29:00,4453E-4,5C000000,-0724,0958,10865,025.0,045.2,0.398,740.0,01.18,0.508
2013-10-22 03:30:00,5233E-4,5C000000,-0724,0958,10950,025.0,045.2,0.399,740.0,01.18,0.508
2013-10-22 03:31:00,5833E-4,5C000000,-0724,0959,10973,025.0,045.3,0.399,740.0,01.18,0.508
2013-10-22 03:32:00,5754E-4,5C000000,-0724,0958,10978,025.0,045.2,0.398,740.1,01.18,0.508
2013-10-22 03:33:00,5474E-4,5C000000,-0724,0958,10931,025.0,045.3,0.398,740.0,01.18,0.508
2013-10-22 03:34:00,5448E-4,5C000000,-0724,0959,10895,025.0,045.2,0.399,740.0,01.18,0.508
2013-10-22 03:35:00,6310E-4,5C000000,-0724,0959,10914,025.0,045.2,0.398,739.9,01.18,0.508
2013-10-22 03:36:00,5237E-4,5C000000,-0724,0959,10730,025.1,045.2,0.398,740.0,01.18,0.508
2013-10-22 03:37:00,4744E-4,5C000000,-0724,0959,10921,025.1,045.2,0.399,739.8,01.18,0.508
2013-10-22 03:38:00,5854E-4,5C000000,-0724,0959,10970,025.0,045.3,0.398,739.8,01.18,0.508
2013-10-22 03:39:00,5956E-4,5C000000,-0724,0959,10863,025.0,045.3,0.398,739.7,01.18,0.508
2013-10-22 03:40:00,6113E-4,5C000000,-0724,0959,10993,025.1,045.3,0.399,739.8,01.18,0.508
2013-10-22 03:41:00,5841E-4,5C000000,-0724,0958,10856,025.1,045.2,0.398,739.7,01.18,0.508
2013-10-22 03:42:00,5289E-4,5C000000,-0724,0959,10909,025.0,045.2,0.398,739.7,01.18,0.508
2013-10-22 03:43:00,4668E-4,5C000000,-0724,0959,11034,025.1,045.2,0.399,739.7,01.18,0.508
2013-10-22 03:44:00,6338E-4,5C000000,-0724,0958,10976,025.1,045.3,0.398,739.7,01.18,0.508
2013-10-22 03:45:00,4444E-4,5C000000,-0724,0958,10967,025.1,045.2,0.398,739.7,01.18,0.508
2013-10-22 03:46:00,5494E-4,5C000000,-0724,0959,10968,025.1,045.2,0.399,739.6,01.18,0.508
2013-10-22 03:47:00,5232E-4,5C000000,-0724,0960,11014,025.1,045.3,0.398,739.6,01.18,0.508
2013-10-22 03:48:00,5849E-4,5C000000,-0724,0959,10993,025.1,045.3,0.398,739.5,01.18,0.508
2013-10-22 03:49:00,5570E-4,5C000000,-0724,0959,10790,025.1,045.3,0.399,739.6,01.18,0.508
2013-10-22 03:50:00,5661E-4,5C000000,-0724,0958,10950,025.1,045.3,0.398,739.5,01.18,0.508
2013-10-22 03:51:00,5785E-4,5C000000,-0724,0959,10776,025.1,045.2,0.398,739.5,01.18,0.508
2013-10-22 03:52:00,5526E-4,5C000000,-0724,0959,10998,025.1,045.2,0.399,739.5,01.18,0.508
2013-10-22 03:53:00,6496E-4,5C000000,-0724,0959,10977,025.1,045.2,0.398,739.4,01.18,0.508
2013-10-22 03:54:00,6132E-4,5C000000,-0724,0959,11046,025.1,045.2,0.398,739.4,01.18,0.508
2013-10-22 03:55:00,5204E-4,5C000000,-0724,0959,10989,025.1,045.3,0.398,739.2,01.18,0.508
2013-10-22 03:56:00,5838E-4,5C000000,-0724,0959,10993,025.1,045.3,0.398,739.0,01.18,0.508
2013-10-22 03:57:00,5821E-4,5C000000,-0724,0958,10863,025.1,045.3,0.398,739.1,01.18,0.508
2013-10-22 03:58:00,6205E-4,5C000000,-0724,0959,10940,025.1,045.2,0.397,738.9,01.18,0.508
2013-10-22 03:59:00,6370E-4,5C000000,-0724,0959,10922,025.1,045.2,0.398,739.0,01.18,0.508
2013-10-22 04:00:00,5536E-4,5C000000,-0724,0959,10911,025.1,045.2,0.398,739.0,01.18,0.508
2013-10-22 04:01:00,5999E-4,5C000000,-0724,0958,10920,025.1,045.2,0.398,738.8,01.18,0.508
2013-10-22 04:02:00,5322E-4,5C000000,-0724,0960,11014,025.1,045.3,0.398,738.8,01.18,0.508
2013-10-22 04:03:00,5144E-4,5C000000,-0724,0959,10976,025.1,045.2,0.398,738.9,01.18,0.508
2013-10-22 04:04:00,5313E-4,5C000000,-0724,0958,10889,025.1,045.2,0.398,739.0,01.18,0.508
2013-10-22 04:05:00,5240E-4,5C000000,-0724,0959,10912,025.1,045.3,0.398,739.0,01.18,0.508
2013-10-22 04:06:00,5941E-4,5C000000,-0724,0959,10929,025.1,045.2,0.398,739.0,01.18,0.508
2013-10-22 04:07:00,5331E-4,5C000000,-0724,0959,10833,025.1,045.2,0.398,739.3,01.18,0.508
2013-10-22 04:08:00,6408E-4,5C000000,-0724,0959,10912,025.1,045.2,0.398,739.3,01.18,0.508
2013-10-22 04:09:00,5250E-4,5C000000,-0724,0959,10932,025.1,045.2,0.398,739.5,01.18,0.508
2013-10-22 04:10:00,5523E-4,5C000000,-0724,0959,11057,025.1,045.2,0.398,739.6,01.18,0.508
2013-10-22 04:11:00,4991E-4,5C000000,-0724,0959,11012,025.1,045.2,0.398,739.6,01.18,0.508
2013-10-22 04:12:00,5842E-4,5C000000,-0724,0960,10939,025.1,045.2,0.398,739.8,01.18,0.508
2013-10-22 04:13:00,6472E-4,5C000000,-0724,0958,10913,025.1,045.3,0.399,739.7,01.18,0.508
2013-10-22 04:14:00,5789E-4,5C000000,-0724,0958,10880,025.1,045.3,0.398,739.9,01.18,0.508
2013-10-22 04:15:00,6001E-4,5C000000,-0724,0959,10801,025.1,045.2,0.398,739.9,01.18,0.508
2013-10-22 04:16:00,6463E-4,5C000000,-0724,0959,11003,025.1,045.2,0.399,739.9,01.18,0.508
2013-10-22 04:17:00,5748E-4,5C000000,-0724,0959,10966,025.1,045.2,0.398,739.9,01.18,0.508
2013-10-22 04:18:00,6126E-4,5C000000,-0724,0960,10914,025.1,045.2,0.399,740.0,01.18,0.508
2013-10-22 04:19:00,5801E-4,5C000000,-0724,0960,10820,025.1,045.3,0.398,740.0,01.18,0.508
2013-10-22 04:20:00,5455E-4,5C000000,-0724,0959,10976,025.1,045.3,0.398,740.0,01.18,0.508